Simultaneous Nadir Overpasses (SNOs) Predictions

Prediction of SNOs between FY3D and LANDSAT-8 Satellite Orbit:

Table of predicted SNOs for the next 14.0 days since TLE Epoch: 2/3/2024
Index Date (FY3D) Time (FY3D) Lat,Lon (FY3D) SZA (FY3D ) Date (LANDSAT-8) Time (LANDSAT-8) Lat,Lon (LANDSAT-8) SZA (LANDSAT-8 ) Distance(km) Time Diff (sec)
1 02/04/2024 17:33:17 73.90, -80.60 90.03 02/04/2024 17:33:53 73.87, -80.67 90.01 3.37 36
2 02/04/2024 18:24:01 -73.84, 86.85 90.04 02/04/2024 18:23:21 -73.86, 86.93 90.03 2.95 40
3 02/07/2024 09:00:09 -73.90,-132.29 90.77 02/07/2024 09:00:56 -73.90,-132.38 90.78 3.03 47
4 02/07/2024 09:50:54 73.86, 35.13 89.18 02/07/2024 09:50:22 73.87, 35.19 89.18 2.08 32
5 02/10/2024 00:27:03 73.93, 175.96 88.42 02/10/2024 00:27:57 73.94, 175.94 88.42 0.75 54
6 02/10/2024 01:17:47 -73.87, -16.57 91.66 02/10/2024 01:17:26 -73.87, -16.57 91.66 0.27 21
7 02/12/2024 15:53:56 -73.95, 124.26 92.43 02/12/2024 15:55:00 -73.97, 124.25 92.41 2.31 64
8 02/12/2024 16:44:40 73.86, -68.22 87.48 02/12/2024 16:44:27 73.88, -68.30 87.49 3.16 13
9 02/12/2024 17:35:13 -73.26, 100.53 93.15 02/12/2024 17:34:06 -73.30, 98.08 93.10 78.31 67
10 02/15/2024 07:20:49 73.95, 72.58 86.68 02/15/2024 07:22:01 73.96, 72.46 86.69 3.62 72
11 02/15/2024 08:11:33 -73.88,-119.95 93.40 02/15/2024 08:11:30 -73.89,-120.04 93.39 3.06 3



Historial Predications of SNOs between FY3D and LANDSAT-8
